Tiempo cada hora Barsi

Hoy, 1 Marzo, Lunes

Tiempo Temperatura Precipitaciones Viento Presión Humedad
00:00 +29°C° 0 mm 3 mps 714 mmHg 18%
01:00 +29°C° 0 mm 3 mps 714 mmHg 20%
02:00 +28°C° 0 mm 3 mps 713 mmHg 21%
03:00 +27°C° 0 mm 2 mps 714 mmHg 22%
04:00 +26°C° 0 mm 2 mps 714 mmHg 23%
05:00 +25°C° 0 mm 2 mps 714 mmHg 24%
06:00 +27°C° 0 mm 2 mps 715 mmHg 22%
07:00 +28°C° 0 mm 2 mps 715 mmHg 21%
08:00 +29°C° 0 mm 3 mps 716 mmHg 19%
09:00 +31°C° 0 mm 2 mps 716 mmHg 17%
10:00 +34°C° 0 mm 2 mps 717 mmHg 15%
11:00 +36°C° 0 mm 2 mps 717 mmHg 13%
12:00 +35°C° 0 mm 1 mps 716 mmHg 12%
13:00 +36°C° 0 mm 1 mps 715 mmHg 12%
14:00 +37°C° 0 mm 1 mps 714 mmHg 12%
15:00 +37°C° 0 mm 1 mps 714 mmHg 11%
16:00 +37°C° 0 mm 1 mps 714 mmHg 11%
17:00 +38°C° 0 mm 2 mps 714 mmHg 11%
18:00 +36°C° 0 mm 2 mps 714 mmHg 12%
19:00 +35°C° 0 mm 3 mps 715 mmHg 14%
20:00 +34°C° 0 mm 4 mps 715 mmHg 15%
21:00 +33°C° 0 mm 4 mps 715 mmHg 15%
22:00 +33°C° 0 mm 4 mps 715 mmHg 16%
23:00 +32°C° 0 mm 4 mps 715 mmHg 16%

Mañana, 2 Marzo, Martes

Tiempo Temperatura Precipitaciones Viento Presión Humedad
00:00 +32°C° 0 mm 4 mps 715 mmHg 17%
01:00 +30°C° 0 mm 4 mps 715 mmHg 18%
02:00 +29°C° 0 mm 4 mps 714 mmHg 19%
03:00 +28°C° 0 mm 3 mps 714 mmHg 21%
04:00 +27°C° 0 mm 2 mps 714 mmHg 23%
05:00 +25°C° 0 mm 1 mps 714 mmHg 25%
06:00 +27°C° 0 mm 2 mps 715 mmHg 23%
07:00 +29°C° 0 mm 3 mps 716 mmHg 21%
08:00 +30°C° 0 mm 4 mps 717 mmHg 19%
09:00 +33°C° 0 mm 4 mps 717 mmHg 17%
10:00 +35°C° 0 mm 5 mps 717 mmHg 15%
11:00 +37°C° 0 mm 5 mps 717 mmHg 13%
12:00 +38°C° 0 mm 4 mps 716 mmHg 12%
13:00 +38°C° 0 mm 4 mps 715 mmHg 11%
14:00 +39°C° 0 mm 3 mps 714 mmHg 11%
15:00 +40°C° 0 mm 4 mps 714 mmHg 10%
16:00 +39°C° 0 mm 5 mps 714 mmHg 10%
17:00 +39°C° 0 mm 6 mps 713 mmHg 10%
18:00 +37°C° 0 mm 5 mps 714 mmHg 11%
19:00 +35°C° 0 mm 5 mps 714 mmHg 12%
20:00 +34°C° 0 mm 4 mps 715 mmHg 13%
21:00 +33°C° 0 mm 4 mps 714 mmHg 13%
22:00 +33°C° 0 mm 4 mps 714 mmHg 13%
23:00 +31°C° 0 mm 3 mps 714 mmHg 13%

Pasado mañana, 3 Marzo, Miércoles

Tiempo Temperatura Precipitaciones Viento Presión Humedad
00:00 +30°C° 0 mm 4 mps 714 mmHg 13%
01:00 +30°C° 0 mm 5 mps 714 mmHg 14%
02:00 +29°C° 0 mm 5 mps 713 mmHg 15%
03:00 +28°C° 0 mm 5 mps 713 mmHg 16%
04:00 +27°C° 0 mm 4 mps 713 mmHg 17%
05:00 +26°C° 0 mm 3 mps 713 mmHg 18%
06:00 +27°C° 0 mm 3 mps 714 mmHg 17%
07:00 +28°C° 0 mm 2 mps 715 mmHg 17%
08:00 +30°C° 0 mm 1 mps 716 mmHg 16%
09:00 +32°C° 0 mm 2 mps 716 mmHg 14%
10:00 +35°C° 0 mm 2 mps 716 mmHg 13%
11:00 +37°C° 0 mm 3 mps 716 mmHg 11%
12:00 +38°C° 0 mm 3 mps 715 mmHg 10%
13:00 +38°C° 0 mm 3 mps 714 mmHg 9%
14:00 +39°C° 0 mm 3 mps 713 mmHg 8%
15:00 +39°C° 0 mm 3 mps 713 mmHg 7%
16:00 +40°C° 0 mm 4 mps 713 mmHg 7%
17:00 +40°C° 0 mm 4 mps 712 mmHg 7%
18:00 +37°C° 0 mm 4 mps 713 mmHg 8%
19:00 +35°C° 0 mm 5 mps 713 mmHg 8%
20:00 +34°C° 0 mm 5 mps 714 mmHg 9%
21:00 +33°C° 0 mm 4 mps 714 mmHg 9%
22:00 +32°C° 0 mm 4 mps 714 mmHg 9%
23:00 +32°C° 0 mm 4 mps 714 mmHg 9%

4 Marzo, Jueves

Tiempo Temperatura Precipitaciones Viento Presión Humedad
00:00 +30°C° 0 mm 4 mps 713 mmHg 10%
01:00 +29°C° 0 mm 4 mps 713 mmHg 11%
02:00 +28°C° 0 mm 4 mps 713 mmHg 12%
03:00 +27°C° 0 mm 3 mps 713 mmHg 16%
04:00 +26°C° 0 mm 3 mps 713 mmHg 21%
05:00 +24°C° 0 mm 2 mps 712 mmHg 25%
06:00 +26°C° 0 mm 2 mps 713 mmHg 25%
07:00 +27°C° 0 mm 2 mps 714 mmHg 25%
08:00 +28°C° 0 mm 1 mps 715 mmHg 25%
09:00 +30°C° 0 mm 2 mps 715 mmHg 22%
10:00 +34°C° 0 mm 3 mps 716 mmHg 20%
11:00 +36°C° 0 mm 3 mps 716 mmHg 17%
12:00 +37°C° 0 mm 3 mps 715 mmHg 15%
13:00 +38°C° 0 mm 2 mps 714 mmHg 13%
14:00 +38°C° 0 mm 2 mps 713 mmHg 11%
15:00 +37°C° 0 mm 1 mps 713 mmHg 11%
16:00 +37°C° 0 mm 1 mps 713 mmHg 10%
17:00 +37°C° 0 mm 1 mps 712 mmHg 10%
18:00 +36°C° 0 mm 1 mps 713 mmHg 12%
19:00 +34°C° 0 mm 1 mps 713 mmHg 14%
20:00 +32°C° 0 mm 1 mps 714 mmHg 15%
21:00 +32°C° 0 mm 2 mps 714 mmHg 16%
22:00 +31°C° 0 mm 2 mps 714 mmHg 16%
23:00 +31°C° 0 mm 3 mps 714 mmHg 16%

5 Marzo, Viernes

Tiempo Temperatura Precipitaciones Viento Presión Humedad
00:00 +30°C° 0 mm 3 mps 714 mmHg 18%
01:00 +29°C° 0 mm 3 mps 713 mmHg 19%
02:00 +28°C° 0 mm 4 mps 713 mmHg 21%
03:00 +27°C° 0 mm 3 mps 713 mmHg 24%
04:00 +26°C° 0 mm 3 mps 713 mmHg 26%
05:00 +25°C° 0 mm 3 mps 713 mmHg 29%
06:00 +26°C° 0 mm 3 mps 714 mmHg 28%
07:00 +28°C° 0 mm 3 mps 715 mmHg 26%
08:00 +29°C° 0 mm 3 mps 716 mmHg 25%
09:00 +32°C° 0 mm 4 mps 716 mmHg 22%
10:00 +35°C° 0 mm 4 mps 716 mmHg 19%
11:00 +37°C° 0 mm 4 mps 716 mmHg 16%
12:00 +38°C° 0 mm 3 mps 715 mmHg 14%
13:00 +39°C° 0 mm 2 mps 714 mmHg 13%
14:00 +39°C° 0 mm 1 mps 713 mmHg 11%
15:00 +39°C° 0 mm 1 mps 713 mmHg 10%
16:00 +40°C° 0 mm 1 mps 713 mmHg 10%
17:00 +40°C° 0 mm 1 mps 713 mmHg 10%
18:00 +38°C° 0 mm 2 mps 713 mmHg 11%
19:00 +36°C° 0 mm 2 mps 713 mmHg 11%
20:00 +34°C° 0 mm 3 mps 713 mmHg 12%
21:00 +33°C° 0 mm 3 mps 714 mmHg 12%
22:00 +31°C° 0 mm 3 mps 714 mmHg 12%
23:00 +31°C° 0 mm 3 mps 714 mmHg 12%

6 Marzo, Sábado

Tiempo Temperatura Precipitaciones Viento Presión Humedad
00:00 +30°C° 0 mm 3 mps 714 mmHg 13%
01:00 +29°C° 0 mm 2 mps 713 mmHg 15%
02:00 +28°C° 0 mm 2 mps 713 mmHg 16%
03:00 +27°C° 0 mm 2 mps 713 mmHg 18%
04:00 +26°C° 0 mm 2 mps 713 mmHg 20%
05:00 +25°C° 0 mm 2 mps 713 mmHg 22%
06:00 +27°C° 0 mm 1 mps 714 mmHg 20%
07:00 +29°C° 0 mm 1 mps 714 mmHg 17%
08:00 +31°C° 0 mm 1 mps 715 mmHg 15%
09:00 +33°C° 0 mm 1 mps 715 mmHg 13%
10:00 +35°C° 0 mm 1 mps 716 mmHg 11%
11:00 +38°C° 0 mm 2 mps 716 mmHg 9%
12:00 +39°C° 0 mm 1 mps 715 mmHg 8%
13:00 +39°C° 0 mm 1 mps 714 mmHg 8%
14:00 +40°C° 0 mm 1 mps 713 mmHg 7%
15:00 +40°C° 0 mm 1 mps 713 mmHg 7%
16:00 +40°C° 0 mm 1 mps 712 mmHg 7%
17:00 +40°C° 0 mm 2 mps 712 mmHg 7%
18:00 +38°C° 0 mm 2 mps 713 mmHg 8%
19:00 +36°C° 0 mm 3 mps 713 mmHg 9%
20:00 +35°C° 0 mm 4 mps 713 mmHg 10%
21:00 +34°C° 0 mm 4 mps 713 mmHg 11%
22:00 +33°C° 0 mm 4 mps 713 mmHg 11%
23:00 +33°C° 0 mm 4 mps 714 mmHg 11%
Mostrar más

Necesitamos Su Consentimiento

Meteoprog y nuestros Proveedores de Servicios pueden almacenar y acceder a sus datos personales como cookies, identificadores de dispositivo u otras tecnologías similares de su dispositivo y procesar dichos datos para personalizar contenido y anuncios, además de ofrecer funciones de redes sociales y analizar el tráfico.

  • Almacenar y/o acceder a información en su dispositivo

    Se puede almacenar o acceder a cookies, identificadores de dispositivo u otra información de su dispositivo para los fines anteriormente indicados.

  • Anuncios y contenido personalizados, medición de anuncios y contenido, percepciones del público, y desarrollo de productos

    Los anuncios y el contenido pueden personalizarse en base a su perfil. Se pueden añadir más datos para personalizar mejor los anuncios y contenidos. Se puede medir el rendimiento de los anuncios y contenidos. Se puede obtener la percepción sobre el público que ha visto los anuncios y contenidos. Dichos datos pueden usarse para desarrollar o mejorar la experiencia del usuario, sistemas y software.

Al hacer clic en ‘Estoy De Acuerdo’ usted permitirá el uso de las cookies, identificadores de dispositivo, balizas web u otras tecnologías similares indicadas. Su configuración puede cambiarse desde el navegador de su dispositivo.

Para ciertos fines, los intereses legítimos pueden ser considerados por encima del consentimiento. Puede leer más sobre ello en nuestra Política de Privacidad y Cookies.